Weather History for Worland, WY

Change the Weather History Date:

Saturday, February 23, 2013

  Actual Average Record
Temperature  
Mean Temperature 22 °F 27 °F  
Max Temperature 33 °F 41 °F 59 °F (1981)
Min Temperature 10 °F 14 °F -21 °F (2003)
Degree Days  
Heating Degree Days 43 38  
Month to date heating degree days 1041 973  
Since 1 July heating degree days 5367 5821  
Cooling Degree Days 0 0  
Month to date cooling degree days 0 0  
Year to date cooling degree days 0 0  
Moisture  
Dew Point 22 °F    
Average Humidity 73    
Maximum Humidity 92    
Minimum Humidity 54    
Precipitation  
Precipitation 0.03 in 0.01 in 0.36 in (1964)
Month to date precipitation 0.22 0.15  
Year to date precipitation 0.35 0.38  
Sea Level Pressure  
Sea Level Pressure 29.76 in    
Wind  
Wind Speed 8 mph (North)    
Max Wind Speed 31 mph    
Max Gust Speed 39 mph    
Visibility 5 miles    
Events Fog , Snow    
T = Trace of Precipitation, MM = Missing Value Source: NWS Daily Summary

Daily Weather History Graph

Daily Weather History Graph

Search for Another Location

Airport:

Trip Planner

Search our weather history database for the weather conditions in past years. The results will help you decide how hot, cold, wet, or windy it might be!

Date:

Astronomy

Feb. 23, 2013 Rise Set
Actual Time 6:58 AM MST 5:52 PM MST
Civil Twilight 6:28 AM MST 6:21 PM MST
Nautical Twilight 5:55 AM MST 6:55 PM MST
Astronomical Twilight 5:22 AM MST 7:28 PM MST
Moon 4:04 PM MST (2/23) 5:24 AM MST (2/23)
Length of Visible Light 11h 53m
Length of Day
10h 54m
Waxing Gibbous, 95% of the Moon is Illuminated
Feb 23
Waxing Gibbous
Feb 25
Full
Mar 4
Last Quarter
Mar 11
New
Mar 19
First Quarter

Hourly Weather History & Observations

Time (MST) Temp. Windchill Dew Point Humidity Pressure Visibility Wind Dir Wind Speed Gust Speed Precip Events Conditions
12:53 AM 12.9 °F 6.9 °F 8.1 °F 81% 29.85 in 10.0 mi SSE 3.5 mph - N/A   Clear
1:53 AM 12.0 °F 4.1 °F 8.1 °F 84% 29.84 in 10.0 mi SSE 4.6 mph - N/A   Clear
2:53 AM 12.0 °F 5.9 °F 7.0 °F 80% 29.81 in 10.0 mi SSE 3.5 mph - N/A   Clear
3:53 AM 10.9 °F - 7.0 °F 84% 29.79 in 10.0 mi Calm Calm - N/A   Clear
4:53 AM 12.9 °F - 9.0 °F 84% 29.79 in 10.0 mi Calm Calm - N/A   Overcast
5:53 AM 19.0 °F 10.0 °F 12.9 °F 77% 29.78 in 10.0 mi ESE 6.9 mph - N/A   Overcast
6:53 AM 17.1 °F 11.7 °F 12.9 °F 84% 29.78 in 10.0 mi WNW 3.5 mph - N/A   Overcast
7:53 AM 21.9 °F 15.7 °F 14.0 °F 72% 29.78 in 10.0 mi SSE 4.6 mph - N/A   Overcast
8:53 AM 21.0 °F 11.4 °F 16.0 °F 81% 29.77 in 10.0 mi West 8.1 mph - N/A   Mostly Cloudy
9:53 AM 27.0 °F - 16.0 °F 63% 29.75 in 10.0 mi Calm Calm - N/A   Mostly Cloudy
10:53 AM 27.0 °F - 17.1 °F 66% 29.77 in 10.0 mi Calm Calm - N/A   Overcast
11:53 AM 32.0 °F 28.7 °F 18.0 °F 56% 29.75 in 10.0 mi NNE 3.5 mph - N/A   Overcast
12:53 PM 30.9 °F 22.8 °F 21.0 °F 67% 29.77 in 10.0 mi NE 9.2 mph - N/A   Overcast
1:53 PM 28.0 °F 17.5 °F 24.1 °F 85% 29.77 in 5.0 mi NNE 12.7 mph - 0.00 in Snow Light Snow
2:03 PM 28.4 °F 18.5 °F 24.8 °F 86% 29.62 in 1.8 mi NNE 11.5 mph - 0.00 in Snow Light Snow
2:24 PM 28.4 °F 19.1 °F 24.8 °F 86% 29.63 in 3.0 mi NNE 10.4 mph - 0.00 in Snow Light Snow
2:53 PM 28.9 °F 21.9 °F 26.1 °F 89% 29.78 in 2.5 mi NNE 6.9 mph - 0.00 in Snow Light Snow
2:59 PM 28.4 °F 22.2 °F 26.6 °F 93% 29.63 in 1.5 mi NNE 5.8 mph - 0.00 in Snow Light Snow
3:20 PM 28.4 °F 24.6 °F 26.6 °F 93% 29.64 in 0.5 mi North 3.5 mph - 0.00 in Fog , Snow Snow
3:44 PM 28.4 °F 23.3 °F 26.6 °F 93% 29.65 in 2.0 mi North 4.6 mph - 0.00 in Snow Light Snow
3:50 PM 28.4 °F 22.2 °F 26.6 °F 93% 29.65 in 4.0 mi NNE 5.8 mph - 0.00 in Snow Light Snow
3:53 PM 28.9 °F 22.8 °F 26.1 °F 89% 29.80 in 4.0 mi NNE 5.8 mph - 0.00 in Snow Light Snow
4:05 PM 28.4 °F 23.3 °F 26.6 °F 93% 29.66 in 7.0 mi North 4.6 mph - 0.00 in   Overcast
4:41 PM 30.2 °F 26.7 °F 26.6 °F 86% 29.67 in 2.0 mi North 3.5 mph - 0.00 in Snow Light Snow
4:47 PM 30.2 °F 24.3 °F 26.6 °F 86% 29.67 in 1.8 mi North 5.8 mph - 0.00 in Snow Light Snow
4:53 PM 28.9 °F 23.9 °F 27.0 °F 92% 29.82 in 1.2 mi NNE 4.6 mph - 0.00 in Snow Light Snow
5:00 PM 28.4 °F 22.2 °F 26.6 °F 93% 29.68 in 0.8 mi NNE 5.8 mph - 0.00 in Snow Light Snow
5:11 PM 28.4 °F 20.4 °F 26.6 °F 93% 29.69 in 1.5 mi NNE 8.1 mph - 0.00 in Snow Light Snow
5:33 PM 28.4 °F 19.1 °F 26.6 °F 93% 29.70 in 0.8 mi North 10.4 mph - 0.01 in Snow Light Snow
5:53 PM 28.0 °F 19.3 °F 27.0 °F 96% 29.83 in 0.5 mi North 9.2 mph - 0.02 in Fog , Snow Snow
6:09 PM 28.4 °F 20.4 °F 26.6 °F 93% 29.71 in 1.0 mi NNW 8.1 mph - 0.01 in Snow Light Snow
6:18 PM 28.4 °F 22.2 °F 26.6 °F 93% 29.72 in 2.0 mi NNW 5.8 mph - 0.01 in Snow Light Snow
6:35 PM 28.4 °F 22.2 °F 26.6 °F 93% 29.73 in 1.5 mi NW 5.8 mph - 0.01 in Snow Light Snow
6:40 PM 28.4 °F 20.4 °F 26.6 °F 93% 29.73 in 2.0 mi NNW 8.1 mph - 0.01 in Snow Light Snow
6:53 PM 28.9 °F 19.8 °F 26.1 °F 89% 29.86 in 2.5 mi NNW 10.4 mph - 0.01 in Snow Light Snow
7:06 PM 28.4 °F 19.1 °F 26.6 °F 93% 29.74 in 1.8 mi NNW 10.4 mph - 0.00 in Snow Light Snow
7:45 PM 28.4 °F 17.0 °F 26.6 °F 93% 29.75 in 2.0 mi NW 15.0 mph - 0.00 in Snow Light Snow
7:53 PM 28.0 °F 17.5 °F 26.1 °F 92% 29.88 in 2.5 mi NNW 12.7 mph - 0.00 in Snow Light Snow
8:53 PM 28.0 °F 17.0 °F 24.1 °F 85% 29.91 in 10.0 mi NNW 13.8 mph 20.7 mph 0.00 in   Overcast
9:04 PM 28.4 °F 16.2 °F 23.0 °F 80% 29.79 in 10.0 mi NNW 17.3 mph 23.0 mph N/A   Overcast
9:53 PM 28.9 °F 14.5 °F 21.9 °F 75% 29.91 in 5.0 mi NNW 25.3 mph 32.2 mph 0.00 in   Haze
10:26 PM 28.4 °F 13.3 °F 21.2 °F 74% 29.81 in 2.0 mi NNW 27.6 mph 39.1 mph 0.00 in   Overcast
10:36 PM 28.4 °F 13.5 °F 21.2 °F 74% 29.82 in 4.0 mi NNW 26.5 mph 35.7 mph 0.00 in   Overcast
10:53 PM 28.9 °F 14.5 °F 21.0 °F 72% 29.93 in 3.0 mi NNW 25.3 mph 35.7 mph 0.00 in   Overcast
11:53 PM 28.9 °F 15.1 °F 19.0 °F 67% 29.94 in 9.0 mi NNW 23.0 mph 31.1 mph 0.00 in   Overcast